• In Hungary
  • List of Countries
  • For 7 days
  • Water Temperature
  • Satellite Maps
  • Weather Map
  • News
  • Weather Widgets
  • user-avatar
    Login

    Hourly Weather Galdowo

    Today, 18 December, Monday

    Time Temperature Precipitation Wind Pressure Humidity
    00:00 0°C° 0 mm 1 mps 758 mmHg 88%
    01:00 0°C° 0 mm 1 mps 758 mmHg 89%
    02:00 0°C° 0 mm 1 mps 758 mmHg 90%
    03:00 -1°C° 0 mm 1 mps 758 mmHg 90%
    04:00 -1°C° 0 mm 1 mps 759 mmHg 90%
    05:00 -1°C° 0 mm 1 mps 759 mmHg 91%
    06:00 -1°C° 0 mm 1 mps 759 mmHg 91%
    07:00 -2°C° 0 mm 0 mps 759 mmHg 91%
    08:00 -1°C° 0 mm 0 mps 760 mmHg 89%
    09:00 -1°C° 0 mm 0 mps 760 mmHg 87%
    10:00 0°C° 0 mm 1 mps 761 mmHg 86%
    11:00 +1°C° 0 mm 1 mps 761 mmHg 84%
    12:00 +1°C° 0 mm 1 mps 761 mmHg 82%
    13:00 +1°C° 0 mm 1 mps 761 mmHg 80%
    14:00 +1°C° 0 mm 1 mps 761 mmHg 83%
    15:00 0°C° 0 mm 1 mps 761 mmHg 86%
    16:00 -1°C° 0 mm 1 mps 761 mmHg 89%
    17:00 -1°C° 0 mm 1 mps 761 mmHg 89%
    18:00 -1°C° 0 mm 1 mps 762 mmHg 90%
    19:00 -1°C° 0 mm 1 mps 762 mmHg 90%
    20:00 -1°C° 0 mm 1 mps 762 mmHg 90%
    21:00 -2°C° 0 mm 1 mps 762 mmHg 91%
    22:00 -2°C° 0 mm 1 mps 762 mmHg 91%
    23:00 -2°C° 0 mm 1 mps 762 mmHg 90%

    Tomorrow, 19 December, Tuesday

    Time Temperature Precipitation Wind Pressure Humidity
    00:00 -2°C° 0 mm 1 mps 762 mmHg 90%
    01:00 -4°C° 0 mm 2 mps 762 mmHg 90%
    02:00 -4°C° 0 mm 2 mps 762 mmHg 90%
    03:00 -4°C° 0 mm 2 mps 762 mmHg 90%
    04:00 -4°C° 0 mm 2 mps 762 mmHg 90%
    05:00 -4°C° 0 mm 2 mps 762 mmHg 90%
    06:00 -4°C° 0 mm 2 mps 762 mmHg 90%
    07:00 -4°C° 0 mm 2 mps 762 mmHg 90%
    08:00 -4°C° 0 mm 2 mps 763 mmHg 87%
    09:00 -4°C° 0 mm 2 mps 763 mmHg 85%
    10:00 -3°C° 0 mm 2 mps 763 mmHg 83%
    11:00 -3°C° 0 mm 2 mps 763 mmHg 81%
    12:00 -2°C° 0 mm 2 mps 763 mmHg 79%
    13:00 -2°C° 0 mm 2 mps 763 mmHg 77%
    14:00 -2°C° 0 mm 2 mps 763 mmHg 80%
    15:00 -2°C° 0 mm 2 mps 763 mmHg 82%
    16:00 -3°C° 0 mm 2 mps 763 mmHg 85%
    17:00 -3°C° 0 mm 2 mps 763 mmHg 85%
    18:00 -3°C° 0 mm 2 mps 763 mmHg 86%
    19:00 -3°C° 0 mm 2 mps 763 mmHg 87%
    20:00 -3°C° 0 mm 2 mps 763 mmHg 88%
    21:00 -3°C° 0 mm 2 mps 763 mmHg 89%
    22:00 -3°C° 0 mm 2 mps 763 mmHg 90%
    23:00 -3°C° 0 mm 2 mps 763 mmHg 91%

    Day after tomorrow, 20 December, Wednesday

    Time Temperature Precipitation Wind Pressure Humidity
    00:00 -2°C° 0 mm 2 mps 763 mmHg 91%
    01:00 -2°C° 0 mm 2 mps 764 mmHg 92%
    02:00 -2°C° 0 mm 2 mps 763 mmHg 92%
    03:00 -2°C° 0 mm 2 mps 763 mmHg 93%
    04:00 -2°C° 0 mm 2 mps 763 mmHg 93%
    05:00 -2°C° 0 mm 2 mps 763 mmHg 93%
    06:00 -2°C° 0 mm 2 mps 763 mmHg 93%
    07:00 -2°C° 0 mm 2 mps 763 mmHg 93%
    08:00 -2°C° 0 mm 2 mps 764 mmHg 93%
    09:00 -1°C° 0 mm 2 mps 764 mmHg 92%
    10:00 -1°C° 0 mm 2 mps 764 mmHg 91%
    11:00 -1°C° 0 mm 2 mps 764 mmHg 90%
    12:00 +2°C° 0 mm 1 mps 764 mmHg 88%
    13:00 +2°C° 0 mm 1 mps 763 mmHg 87%
    14:00 +2°C° 0 mm 1 mps 763 mmHg 88%
    15:00 +1°C° 0 mm 1 mps 763 mmHg 89%
    16:00 +1°C° 0 mm 1 mps 763 mmHg 90%
    17:00 +1°C° 0 mm 1 mps 764 mmHg 90%
    18:00 +1°C° 0 mm 1 mps 764 mmHg 90%
    19:00 +1°C° 0 mm 1 mps 764 mmHg 90%
    20:00 0°C° 0 mm 1 mps 764 mmHg 91%
    21:00 0°C° 0 mm 1 mps 764 mmHg 92%
    22:00 0°C° 0 mm 1 mps 763 mmHg 92%
    23:00 -3°C° 0 mm 2 mps 763 mmHg 93%

    21 December, Thursday

    Time Temperature Precipitation Wind Pressure Humidity
    00:00 -3°C° 0 mm 2 mps 763 mmHg 93%
    01:00 -3°C° 0 mm 2 mps 763 mmHg 94%
    02:00 -3°C° 0 mm 2 mps 762 mmHg 94%
    03:00 -4°C° 0 mm 3 mps 762 mmHg 94%
    04:00 -5°C° 0 mm 3 mps 761 mmHg 94%
    05:00 -4°C° 0 mm 3 mps 761 mmHg 93%
    06:00 -4°C° 0 mm 4 mps 760 mmHg 92%
    07:00 -4°C° 0 mm 4 mps 760 mmHg 92%
    08:00 -5°C° 0.3 mm 5 mps 759 mmHg 92%
    09:00 -4°C° 0.3 mm 5 mps 758 mmHg 92%
    10:00 -4°C° 0.3 mm 5 mps 758 mmHg 92%
    11:00 -2°C° 0.7 mm 5 mps 757 mmHg 92%
    12:00 -2°C° 0.7 mm 5 mps 756 mmHg 93%
    13:00 -2°C° 0.7 mm 5 mps 755 mmHg 93%
    14:00 -1°C° 0.1 mm 5 mps 755 mmHg 94%
    15:00 -1°C° 0.1 mm 4 mps 755 mmHg 95%
    16:00 -1°C° 0.1 mm 4 mps 754 mmHg 95%
    17:00 0°C° 0.1 mm 4 mps 754 mmHg 95%
    18:00 0°C° 0.1 mm 4 mps 754 mmHg 95%
    19:00 0°C° 0.1 mm 5 mps 754 mmHg 95%
    20:00 0°C° 0.1 mm 5 mps 755 mmHg 95%
    21:00 0°C° 0.1 mm 5 mps 755 mmHg 94%
    22:00 0°C° 0.1 mm 5 mps 755 mmHg 94%
    23:00 0°C° 0 mm 5 mps 754 mmHg 93%

    22 December, Friday

    Time Temperature Precipitation Wind Pressure Humidity
    00:00 0°C° 0 mm 5 mps 754 mmHg 93%
    01:00 0°C° 0 mm 5 mps 754 mmHg 92%
    02:00 0°C° 0 mm 5 mps 754 mmHg 91%
    03:00 0°C° 0 mm 5 mps 754 mmHg 90%
    04:00 -1°C° 0 mm 5 mps 754 mmHg 88%
    05:00 -2°C° 0.1 mm 6 mps 754 mmHg 87%
    06:00 -1°C° 0.1 mm 6 mps 754 mmHg 87%
    07:00 -1°C° 0.1 mm 6 mps 754 mmHg 86%
    08:00 -1°C° 0.1 mm 6 mps 754 mmHg 84%
    09:00 -1°C° 0.1 mm 6 mps 754 mmHg 83%
    10:00 -1°C° 0.1 mm 6 mps 754 mmHg 81%
    11:00 -1°C° 0 mm 6 mps 754 mmHg 82%
    12:00 0°C° 0 mm 5 mps 755 mmHg 82%
    13:00 0°C° 0 mm 5 mps 755 mmHg 82%
    14:00 0°C° 0 mm 5 mps 755 mmHg 84%
    15:00 0°C° 0 mm 5 mps 755 mmHg 86%
    16:00 -1°C° 0 mm 4 mps 755 mmHg 88%
    17:00 -1°C° 0 mm 4 mps 755 mmHg 87%
    18:00 -1°C° 0 mm 4 mps 755 mmHg 87%
    19:00 -1°C° 0 mm 4 mps 755 mmHg 86%
    20:00 -1°C° 0.3 mm 4 mps 754 mmHg 87%
    21:00 -1°C° 0.3 mm 5 mps 753 mmHg 87%
    22:00 -2°C° 0.3 mm 6 mps 753 mmHg 87%
    23:00 -1°C° 1.1 mm 6 mps 752 mmHg 88%

    23 December, Saturday

    Time Temperature Precipitation Wind Pressure Humidity
    00:00 -1°C° 1.1 mm 7 mps 751 mmHg 88%
    01:00 0°C° 1.1 mm 8 mps 750 mmHg 88%
    02:00 -1°C° 0.3 mm 8 mps 750 mmHg 86%
    03:00 -1°C° 0.3 mm 8 mps 750 mmHg 83%
    04:00 -3°C° 0.3 mm 9 mps 750 mmHg 80%
    05:00 -2°C° 0.1 mm 8 mps 751 mmHg 80%
    06:00 -2°C° 0.1 mm 7 mps 752 mmHg 80%
    07:00 -2°C° 0.1 mm 7 mps 753 mmHg 80%
    08:00 -2°C° 0 mm 6 mps 754 mmHg 80%
    09:00 -2°C° 0 mm 6 mps 755 mmHg 80%
    10:00 -1°C° 0 mm 5 mps 756 mmHg 80%
    11:00 -1°C° 0 mm 5 mps 757 mmHg 80%
    12:00 -1°C° 0 mm 5 mps 757 mmHg 79%
    13:00 -1°C° 0 mm 5 mps 757 mmHg 79%
    14:00 -1°C° 0 mm 4 mps 758 mmHg 81%
    15:00 -2°C° 0 mm 4 mps 758 mmHg 84%
    16:00 -2°C° 0 mm 3 mps 758 mmHg 86%
    17:00 -2°C° 0 mm 3 mps 759 mmHg 87%
    18:00 -4°C° 0 mm 3 mps 759 mmHg 87%
    19:00 -4°C° 0 mm 3 mps 759 mmHg 88%
    20:00 -4°C° 0 mm 3 mps 759 mmHg 86%
    21:00 -2°C° 0 mm 3 mps 758 mmHg 84%
    22:00 -3°C° 0 mm 4 mps 758 mmHg 82%
    23:00 -3°C° 0.1 mm 4 mps 757 mmHg 82%
    Show more